This demonstration page uses our WeatherBlox Daily Observations layout. Learn more.

Left ArrowRight Arrow

39.29038, -76.61219

Hourly Observations for March 14, 2020

Temp ( °F °C ) Dew Point ( °F °C ) Humidity (%) Winds ( mph kmh ) Pressure ( in mb ) Visibility ( mi km ) Precip ( " mm )
12:54 am 00:54 undefined 56 13.3 19 -7.2 24 24 undefined N/A 30.20 1023 N/A 0.00 0.00
1:54 am 01:54 undefined 55 12.8 18 -7.8 23 23 undefined N/A 30.23 1024 N/A 0.00 0.00
2:54 am 02:54 undefined 53 11.7 18 -7.8 25 25 undefined N/A 30.26 1025 N/A 0.00 0.00
3:54 am 03:54 undefined 51 10.6 19 -7.2 28 28 undefined N/A 30.28 1025 N/A 0.00 0.00
4:54 am 04:54 undefined 49 9.4 21 -6.1 33 33 undefined N/A 30.30 1026 N/A 0.00 0.00
5:54 am 05:54 undefined 48 8.9 23 -5 37 37 undefined N/A 30.33 1027 N/A 0.00 0.00
6:54 am 06:54 undefined 48 8.9 23 -5 37 37 undefined N/A 30.36 1028 N/A 0.00 0.00
7:54 am 07:54 undefined 47 8.3 20 -6.7 34 34 undefined N/A 30.37 1029 N/A 0.00 0.00
8:54 am 08:54 undefined 48 8.9 19 -7.2 32 32 undefined N/A 30.39 1029 N/A 0.00 0.00
9:54 am 09:54 undefined 49 9.4 17 -8.3 28 28 undefined N/A 30.40 1030 N/A 0.00 0.00
10:54 am 10:54 undefined 51 10.6 18 -7.8 27 27 undefined N/A 30.41 1030 N/A 0.00 0.00
11:54 am 11:54 undefined 53 11.7 19 -7.2 26 26 undefined N/A 30.40 1030 N/A 0.00 0.00
12:54 pm 12:54 undefined 54 12.2 19 -7.2 25 25 undefined N/A 30.39 1029 N/A 0.00 0.00
1:54 pm 13:54 undefined 56 13.3 18 -7.8 22 22 undefined N/A 30.37 1029 N/A 0.00 0.00
2:54 pm 14:54 undefined 57 13.9 18 -7.8 22 22 undefined N/A 30.35 1028 N/A 0.00 0.00
3:54 pm 15:54 undefined 57 13.9 16 -8.9 20 20 undefined N/A 30.34 1028 N/A 0.00 0.00
4:54 pm 16:54 undefined 57 13.9 17 -8.3 21 21 undefined N/A 30.35 1028 N/A 0.00 0.00
5:54 pm 17:54 undefined 56 13.3 19 -7.2 24 24 undefined N/A 30.35 1028 N/A 0.00 0.00
6:54 pm 18:54 undefined 54 12.2 25 -3.9 33 33 undefined N/A 30.36 1028 N/A 0.00 0.00
7:54 pm 19:54 undefined 51 10.6 31 -0.6 46 46 undefined N/A 30.38 1029 N/A 0.00 0.00
8:54 pm 20:54 undefined 51 10.6 30 -1.1 44 44 undefined N/A 30.35 1028 N/A 0.00 0.00
9:54 pm 21:54 undefined 50 10 30 -1.1 46 46 undefined N/A 30.38 1029 N/A 0.00 0.00
10:54 pm 22:54 undefined 46 7.8 35 1.7 66 66 undefined N/A 30.40 1029 N/A 0.02 0.51
11:54 pm 23:54 undefined 43 6.1 36 2.2 76 76 undefined N/A 30.41 1030 N/A 0.03 0.76

Powered by AerisWeather